Location: Knobs
(40.8333°S, 175.2333°E)
Time: 03:02:33
(UTC+00:00)

SL-19 R/B - Pass Details

Date: 12 June 2024
Orbit: 796 x 1008 km, 99.6° (Epoch: 22 July)

Event Time Altitude Azimuth Distance (km) Brightness Sun altitude
Rises 17:06:02 0° 9° (N) 3,723 7.7 -28.4°
Reaches altitude 10° 17:08:31 10° 6° (N) 2,784 7.0 -27.9°
Maximum altitude 17:14:48 69° 283° (WNW) 1,081 4.4 -26.8°
Enters shadow 17:15:27 64° 248° (WSW) 1,112 4.4 -26.6°
